Location: Wangen+im+Allg�u
(47.7098°N, 9.8383°E)
Time: 11:32:00
(UTC+02:00)

ISS - Visible Passes

Search period start: 25 September 2017 00:00
Search period end: 05 October 2017 00:00
Orbit: 401 x 407 km, 51.6° (Epoch: 25 September)

Date Brightness Start Highest point End Pass type
(mag) Time Alt. Az. Time Alt. Az. Time Alt. Az.
25 Sep -1.5 21:18:40 10° SW 21:19:29 16° SW 21:19:29 16° SW visible
26 Sep -2.7 20:26:46 10° SSW 20:29:34 26° SE 20:29:50 26° SE visible
27 Sep -1.9 19:35:18 10° S 19:37:23 16° SE 19:39:29 10° E visible
27 Sep -3.1 21:10:10 10° WSW 21:12:39 48° SW 21:12:39 48° SW visible
28 Sep -3.6 20:17:55 10° SW 20:21:06 51° SSE 20:22:37 26° E visible
28 Sep -0.9 21:54:26 10° W 21:55:17 16° W 21:55:17 16° W visible
29 Sep -3.5 21:01:54 10° W 21:05:07 61° NNW 21:05:07 61° NNW visible
30 Sep -3.9 20:09:25 10° WSW 20:12:41 87° NNW 20:14:52 20° ENE visible
30 Sep -1.1 21:46:17 10° WNW 21:47:30 20° WNW 21:47:30 20° WNW visible
01 Oct -3.1 20:53:42 10° W 20:56:52 45° N 20:57:10 43° N visible
02 Oct -3.3 20:01:06 10° W 20:04:20 56° NNW 20:06:46 16° ENE visible
02 Oct -1.2 21:38:02 10° WNW 21:39:24 21° NW 21:39:24 21° NW visible
03 Oct -2.9 20:45:28 10° WNW 20:48:35 39° N 20:48:57 38° NNE visible
04 Oct -2.9 19:52:51 10° W 19:56:00 43° N 19:58:28 15° ENE visible
04 Oct -1.4 21:29:38 10° WNW 21:31:06 23° NW 21:31:06 23° NW visible
